STARLINK-2380, 47799

Orbit data source: Space-Track

STARLINK-2380, 47799 is a payload satellite owned by SpaceX/Seattle (US) in LEO that was launched on Thu, 11 Mar 2021 UTC via an FALCON 9 launch vehicle from the Air Force Eastern Test Range (AFETR). Payload-class satellites include a variety of spacecraft equipped with specific instruments for various scientific and technological missions. These include communications satellites like Starlink; space stations such as the ISS; scientific satellites like the Hubble; Earth observation satellites from companies like Planet Labs, Umbra, and HawkEye 360; GPS; miniature CubeSats for education and research; and military/defense satellites.

Loading next visibility...
Identifier
47799, 2021-018N
Orbit
LEO
Country
Flag of USUS
Related business
Manufacturer
SpaceX/Seattle
Mission
Operational Commercial Communications
Bus & Motor
STARLINK, Unknown motor
Mass
260 kg wet, ~248 kg dry
Launch date (UTC)
2021-03-11 (5 years ago)
Launch vehicle
FALCON 9
Launch site
Air Force Eastern Test Range (AFETR)
Object type
Payload
Rocket body
Debris
Shape & HBR
Box + 1 Pan, 10.1 m
Radar Cross Section
13.562 m², Large (>1 m²)

Expand to show TLE details & history
Last TLE update: 3 days ago

TLE from 3 days ago
0 STARLINK-2380
1 47799U 21018N   26170.14977563  .00003722  00000-0  13158-3 0  9991
2 47799  53.1585 120.1379 0001758  95.0683 265.0519 15.31721983292405
Epoch: 2026-06-19T03:35Z
TLE epoch observation values (Epoch: 2026-06-19T03:35:40.614Z)
Latitude
-0.00003°
Longitude
158.83577°
Altitude
471.679 km
Speed
7.631 km/s
True Right ascension
08h 00m 33s
True Declination
0° 00' 00"
Sunlit
Object was in daylight at epoch
Visualization orbit readout
Latitude
Unknown
Longitude
Unknown
Altitude
Unknown
Speed
Unknown
Apparent Right ascension
Unknown
Apparent Declination
Unknown
Sunlit
N/A
Visualization observer readout
Local Sidereal Time
21:35:07
Azimuth
Unknown
Elevation
Unknown
Doppler factor
Unknown
Orbital elements
Apogee altitude
472.135 km
Perigee altitude
469.727 km
Semi-major axis
6,849.068 km
Eccentricity
0.00018
Inclination
53.1585°
RAAN
120.1379°
Arg. of periapsis
95.0683°
True anomaly
265.03183°
Mean anomaly
265.0519°
Eccentric anomaly
265.04187°
Mean motion
3.82909 °/min
Orbital period
94.02 mins
BSTAR
0.00013158
Loading maneuver chart data...
Computing Atmospheric mass density...
Loading historical data...
Loading historical data...
Loading historical data...
Loading historical data...
Loading historical data...
Loading historical data...
Loading historical data...

Documentation

Showing up to 5 results
|